When you browse on this site, cookies collect data to enhance your experience and personalize the content and advertising you see.
Visit our Privacy Policy to learn more. By continuing to use the site, you agree to this use of cookies and data.
  • In Latvia
  • List of Countries
  • For 7 days
  • Water Temperature
  • Weather Map
  • Weather Widgets
  • user-avatar
    Login

    Hourly Weather Kuweit

    Today, 29 January, Wednesday

    Time Temperature Precipitation Wind Pressure Humidity
    00:00 +15°C° 0 mm 2 mps 762 mmHg 48%
    01:00 +15°C° 0 mm 2 mps 762 mmHg 48%
    02:00 +14°C° 0 mm 3 mps 762 mmHg 49%
    03:00 +13°C° 0 mm 3 mps 761 mmHg 49%
    04:00 +13°C° 0 mm 3 mps 762 mmHg 49%
    05:00 +13°C° 0 mm 3 mps 762 mmHg 50%
    06:00 +13°C° 0 mm 3 mps 762 mmHg 50%
    07:00 +14°C° 0 mm 4 mps 762 mmHg 47%
    08:00 +14°C° 0 mm 4 mps 762 mmHg 44%
    09:00 +15°C° 0 mm 4 mps 762 mmHg 42%
    10:00 +16°C° 0 mm 5 mps 762 mmHg 36%
    11:00 +19°C° 0 mm 5 mps 762 mmHg 30%
    12:00 +20°C° 0 mm 6 mps 761 mmHg 25%
    13:00 +20°C° 0 mm 6 mps 761 mmHg 25%
    14:00 +21°C° 0 mm 7 mps 760 mmHg 25%
    15:00 +21°C° 0 mm 8 mps 759 mmHg 25%
    16:00 +20°C° 0 mm 8 mps 759 mmHg 31%
    17:00 +18°C° 0 mm 8 mps 759 mmHg 36%
    18:00 +17°C° 0 mm 7 mps 760 mmHg 42%
    19:00 +17°C° 0 mm 7 mps 760 mmHg 46%
    20:00 +17°C° 0 mm 7 mps 760 mmHg 50%
    21:00 +16°C° 0 mm 6 mps 761 mmHg 54%
    22:00 +16°C° 0 mm 5 mps 761 mmHg 48%
    23:00 +15°C° 0 mm 5 mps 761 mmHg 42%

    Tomorrow, 30 January, Thursday

    Time Temperature Precipitation Wind Pressure Humidity
    00:00 +15°C° 0 mm 4 mps 761 mmHg 36%
    01:00 +14°C° 0 mm 4 mps 761 mmHg 39%
    02:00 +14°C° 0 mm 4 mps 761 mmHg 42%
    03:00 +13°C° 0 mm 4 mps 761 mmHg 45%
    04:00 +13°C° 0 mm 4 mps 761 mmHg 54%
    05:00 +13°C° 0 mm 4 mps 762 mmHg 64%
    06:00 +14°C° 0 mm 5 mps 762 mmHg 73%
    07:00 +14°C° 0 mm 5 mps 763 mmHg 73%
    08:00 +15°C° 0 mm 6 mps 763 mmHg 74%
    09:00 +15°C° 0 mm 6 mps 764 mmHg 75%
    10:00 +16°C° 0 mm 6 mps 764 mmHg 67%
    11:00 +17°C° 0 mm 5 mps 764 mmHg 59%
    12:00 +20°C° 0 mm 4 mps 764 mmHg 52%
    13:00 +20°C° 0 mm 4 mps 763 mmHg 48%
    14:00 +20°C° 0 mm 3 mps 763 mmHg 44%
    15:00 +21°C° 0 mm 3 mps 763 mmHg 39%
    16:00 +20°C° 0 mm 3 mps 763 mmHg 40%
    17:00 +20°C° 0 mm 3 mps 763 mmHg 40%
    18:00 +19°C° 0 mm 3 mps 763 mmHg 41%
    19:00 +19°C° 0 mm 3 mps 763 mmHg 40%
    20:00 +18°C° 0 mm 3 mps 763 mmHg 40%
    21:00 +18°C° 0 mm 3 mps 763 mmHg 40%
    22:00 +17°C° 0 mm 3 mps 763 mmHg 40%
    23:00 +17°C° 0 mm 3 mps 763 mmHg 40%

    Day after tomorrow, 31 January, Friday

    Time Temperature Precipitation Wind Pressure Humidity
    00:00 +17°C° 0 mm 3 mps 763 mmHg 40%
    01:00 +16°C° 0 mm 3 mps 763 mmHg 41%
    02:00 +16°C° 0 mm 3 mps 763 mmHg 43%
    03:00 +14°C° 0 mm 3 mps 763 mmHg 44%
    04:00 +14°C° 0 mm 3 mps 763 mmHg 45%
    05:00 +14°C° 0 mm 3 mps 763 mmHg 46%
    06:00 +14°C° 0 mm 2 mps 763 mmHg 47%
    07:00 +15°C° 0 mm 2 mps 763 mmHg 46%
    08:00 +15°C° 0 mm 2 mps 763 mmHg 44%
    09:00 +16°C° 0 mm 1 mps 764 mmHg 42%
    10:00 +18°C° 0 mm 1 mps 763 mmHg 39%
    11:00 +19°C° 0 mm 1 mps 763 mmHg 36%
    12:00 +18°C° 0 mm 0 mps 763 mmHg 33%
    13:00 +20°C° 0 mm 1 mps 762 mmHg 32%
    14:00 +20°C° 0 mm 1 mps 761 mmHg 31%
    15:00 +21°C° 0 mm 1 mps 761 mmHg 30%
    16:00 +19°C° 0 mm 2 mps 761 mmHg 33%
    17:00 +19°C° 0 mm 3 mps 761 mmHg 37%
    18:00 +18°C° 0 mm 4 mps 761 mmHg 41%
    19:00 +18°C° 0 mm 4 mps 761 mmHg 44%
    20:00 +17°C° 0 mm 4 mps 761 mmHg 46%
    21:00 +16°C° 0 mm 5 mps 761 mmHg 48%
    22:00 +16°C° 0 mm 5 mps 761 mmHg 50%
    23:00 +15°C° 0 mm 4 mps 760 mmHg 52%

    1 February, Saturday

    Time Temperature Precipitation Wind Pressure Humidity
    00:00 +15°C° 0 mm 4 mps 760 mmHg 54%
    01:00 +15°C° 0 mm 4 mps 760 mmHg 54%
    02:00 +14°C° 0 mm 4 mps 760 mmHg 55%
    03:00 +14°C° 0 mm 4 mps 760 mmHg 56%
    04:00 +14°C° 0 mm 4 mps 760 mmHg 56%
    05:00 +14°C° 0 mm 4 mps 760 mmHg 55%
    06:00 +14°C° 0 mm 3 mps 760 mmHg 55%
    07:00 +14°C° 0 mm 3 mps 761 mmHg 52%
    08:00 +16°C° 0 mm 2 mps 761 mmHg 50%
    09:00 +17°C° 0 mm 2 mps 761 mmHg 47%
    10:00 +18°C° 0 mm 2 mps 761 mmHg 43%
    11:00 +19°C° 0 mm 2 mps 761 mmHg 40%
    12:00 +20°C° 0 mm 2 mps 761 mmHg 36%
    13:00 +20°C° 0 mm 2 mps 761 mmHg 35%
    14:00 +21°C° 0 mm 2 mps 760 mmHg 33%
    15:00 +21°C° 0 mm 2 mps 760 mmHg 32%
    16:00 +20°C° 0 mm 2 mps 760 mmHg 35%
    17:00 +20°C° 0 mm 2 mps 760 mmHg 39%
    18:00 +19°C° 0 mm 2 mps 760 mmHg 43%
    19:00 +19°C° 0 mm 3 mps 761 mmHg 43%
    20:00 +18°C° 0 mm 3 mps 761 mmHg 43%
    21:00 +18°C° 0 mm 3 mps 762 mmHg 43%
    22:00 +16°C° 0 mm 5 mps 762 mmHg 37%
    23:00 +15°C° 0 mm 6 mps 762 mmHg 30%

    2 February, Sunday

    Time Temperature Precipitation Wind Pressure Humidity
    00:00 +15°C° 0 mm 7 mps 762 mmHg 24%
    01:00 +14°C° 0 mm 7 mps 762 mmHg 25%
    02:00 +12°C° 0 mm 7 mps 762 mmHg 25%
    03:00 +12°C° 0 mm 7 mps 763 mmHg 26%
    04:00 +13°C° 0 mm 6 mps 763 mmHg 27%
    05:00 +11°C° 0 mm 6 mps 763 mmHg 29%
    06:00 +12°C° 0 mm 5 mps 764 mmHg 30%
    07:00 +12°C° 0 mm 5 mps 764 mmHg 28%
    08:00 +12°C° 0 mm 5 mps 765 mmHg 26%
    09:00 +13°C° 0 mm 5 mps 765 mmHg 25%
    10:00 +14°C° 0 mm 4 mps 765 mmHg 23%
    11:00 +15°C° 0 mm 4 mps 765 mmHg 21%
    12:00 +17°C° 0 mm 4 mps 765 mmHg 19%
    13:00 +17°C° 0 mm 4 mps 765 mmHg 19%
    14:00 +18°C° 0 mm 4 mps 765 mmHg 18%
    15:00 +18°C° 0 mm 3 mps 764 mmHg 17%
    16:00 +18°C° 0 mm 4 mps 764 mmHg 19%
    17:00 +18°C° 0 mm 4 mps 765 mmHg 21%
    18:00 +17°C° 0 mm 4 mps 765 mmHg 24%
    19:00 +17°C° 0 mm 4 mps 765 mmHg 25%
    20:00 +15°C° 0 mm 4 mps 765 mmHg 27%
    21:00 +15°C° 0 mm 5 mps 765 mmHg 29%
    22:00 +14°C° 0 mm 5 mps 765 mmHg 31%
    23:00 +14°C° 0 mm 5 mps 765 mmHg 33%

    3 February, Monday

    Time Temperature Precipitation Wind Pressure Humidity
    00:00 +13°C° 0 mm 5 mps 765 mmHg 36%
    01:00 +13°C° 0 mm 5 mps 765 mmHg 37%
    02:00 +13°C° 0 mm 5 mps 765 mmHg 38%
    03:00 +12°C° 0 mm 4 mps 765 mmHg 39%
    04:00 +12°C° 0 mm 4 mps 765 mmHg 40%
    05:00 +12°C° 0 mm 4 mps 765 mmHg 41%
    06:00 +11°C° 0 mm 4 mps 765 mmHg 41%
    07:00 +12°C° 0 mm 4 mps 765 mmHg 40%
    08:00 +12°C° 0 mm 4 mps 765 mmHg 39%
    09:00 +13°C° 0 mm 4 mps 766 mmHg 38%
    10:00 +14°C° 0 mm 4 mps 766 mmHg 35%
    11:00 +15°C° 0 mm 4 mps 765 mmHg 32%
    12:00 +17°C° 0 mm 4 mps 765 mmHg 29%
    13:00 +18°C° 0 mm 4 mps 765 mmHg 28%
    14:00 +18°C° 0 mm 4 mps 764 mmHg 26%
    15:00 +19°C° 0 mm 4 mps 763 mmHg 25%
    16:00 +19°C° 0 mm 4 mps 763 mmHg 25%
    17:00 +18°C° 0 mm 3 mps 763 mmHg 26%
    18:00 +18°C° 0 mm 3 mps 763 mmHg 27%
    19:00 +17°C° 0 mm 3 mps 763 mmHg 28%
    20:00 +17°C° 0 mm 3 mps 763 mmHg 29%
    21:00 +16°C° 0 mm 2 mps 763 mmHg 30%
    22:00 +16°C° 0 mm 2 mps 763 mmHg 30%
    23:00 +16°C° 0 mm 2 mps 763 mmHg 31%
    Show more